Location: Unspecified
(0.0000°N, 0.0000°E)
Time: 02:14:03
(UTC+00:00)

KAITUO 1B - Visible Passes

Search period start: 17 January 2019 00:00
Search period end: 27 January 2019 00:00
Orbit: 498 x 518 km, 97.5° (Epoch: 16 January)

Date Brightness Start Highest point End Pass type
(mag) Time Alt. Az. Time Alt. Az. Time Alt. Az.
19 Jan ? 05:40:09 10° NNE 05:43:45 44° E 05:47:21 10° S visible
20 Jan ? 05:23:35 10° NE 05:26:38 24° ESE 05:29:41 10° SSE visible
20 Jan ? 18:50:06 10° SW 18:51:44 13° WSW 18:53:23 10° WNW visible
21 Jan ? 05:07:46 10° ENE 05:09:32 13° ESE 05:11:18 10° SE visible
25 Jan ? 05:31:20 10° NE 05:34:41 31° E 05:38:03 10° SSE visible
26 Jan ? 05:15:03 10° ENE 05:17:34 17° ESE 05:20:04 10° SE visible
26 Jan ? 18:40:08 10° SW 18:42:38 18° WSW 18:45:09 10° WNW visible
